{"data":{"norad_id":54792,"epoch":"2026-05-25T01:28:23.598336Z","epoch_age_seconds":66145,"freshness":"FRESH","line1":"1 54792U 22175AL  26145.06138424 -.00000904  00000+0 -38688-4 0  9991","line2":"2 54792  53.2133  60.9138 0001640  91.3141 268.8039 15.08845697191452","mean_motion":15.08845697,"eccentricity":0.000164,"inclination_deg":53.2133,"raan_deg":60.9138,"arg_perigee_deg":91.3141,"mean_anomaly_deg":268.8039,"bstar":-3.8688e-5,"rev_number":19145,"period_min":95.437194330946,"perigee_km":538.59144604102,"apogee_km":540.86050509701,"semimajor_km":6917.862975569,"source":"CELESTRAK","updated_at":"2026-05-25T13:38:17.694960Z"}}